Regional Weather Roundup
Issued by NWS

Home | Current Version | Previous Version | Graphics & Text | Print | Product List | Glossary On
Versions: 1 2 3 4 5 6 7 8 9 10 11 12 13 14 15 16 17 18 19 20 21 22 23 24 25 26 27 28 29 30 31 32 33 34 35 36 37 38 39 40 41 42 43 44 45 46 47 48 49 50
000
ASUS43 KDMX 210907
RWRIA

WEATHER ROUNDUP FOR IOWA
NATIONAL WEATHER SERVICE DES MOINES IA
400 AM CDT TUE APR 21 2015

NOTE: "FAIR" INDICATES FEW OR NO CLOUDS BELOW 12,000 FEET WITH NO
SIGNIFICANT WEATHER AND/OR OBSTRUCTIONS TO VISIBILITY.

* - THESE STATIONS ARE NOT NWS STATIONS...THUS NOT UNDER NWS
QUALITY CONTROL.  THEY ALSO DO NOT REPORT WEATHER SUCH
AS PRECIPITATION OR FOG.

IAZ001>003-012>014-020>022-031>034-043>046-211000-
   NORTHWEST IOWA

CITY           SKY/WX    TMP DP  RH WIND       PRES   REMARKS
CARROLL *      CLEAR     34  23  64 W10       29.76R WCI  26
CHEROKEE *     CLEAR     32  21  64 W7        29.75S WCI  26
DENISON *      CLEAR     36  19  51 W9        29.76R WCI  29
LE MARS *      CLEAR     32  18  55 S6        29.77F WCI  26
ORANGE CITY *  CLEAR     28  19  69 W9        29.74S WCI  20
SHELDON *      CLEAR     34  25  69 W14       29.71S WCI  24
SIOUX CITY     CLEAR     34  16  47 W8        29.79R WCI  27
SPENCER        CLEAR     32  26  78 W12       29.71S WCI  23
STORM LAKE *   CLEAR     32  23  69 W10       29.74S WCI  24
$$

IAZ055>058-069>071-079>083-090>094-211000-
   SOUTHWEST IOWA

CITY           SKY/WX    TMP DP  RH WIND       PRES   REMARKS
ATLANTIC *     CLEAR     39  21  48 W12       29.79R WCI  32
AUDUBON *      CLEAR     36  21  55 W6        29.78R WCI  31
CLARINDA *     CLOUDY    41  28  60 W10       29.83R
COUNCIL BLFS * MOCLDY    43  21  42 NW9       29.81R
CRESTON *      CLOUDY    37  25  60 W12       29.78R WCI  30
HARLAN  *      CLEAR     36  23  60 W12       29.82R WCI  27
LAMONI         CLOUDY    42  27  55 W12       29.78R
RED OAK *      CLOUDY    41  27  56 W7        29.81R
SHENANDOAH *   PTCLDY    37  30  75 SW7       29.83R WCI  32
$$

IAZ047>049-059>061-072>074-084-211000-
   CENTRAL IOWA

CITY           SKY/WX    TMP DP  RH WIND       PRES   REMARKS
AMES           CLEAR     35  28  75 W10       29.73R WCI  27
ANKENY *       CLEAR     37  25  60 W9        29.74S WCI  31
CHARITON *     MOCLDY    39  23  52 W10       29.75S WCI  32
DES MOINES     CLEAR     39  21  48 W8        29.75R WCI  33
GRINNELL*      CLEAR     37  30  75 W9        29.72R WCI  31
KNOXVILLE *    CLEAR     37  23  56 W9        29.73R WCI  31
MARSHALLTOWN   CLEAR     38  28  67 W15       29.69R WCI  29
PELLA *        CLEAR     41  28  60 W10       29.74R
PERRY *          N/A     34  28  80 W9        29.75R WCI  26
$$

IAZ004>006-015-016-023>025-035-036-211000-
   NORTH CENTRAL IOWA

CITY           SKY/WX    TMP DP  RH WIND       PRES   REMARKS
ALGONA *       CLEAR     34  28  80 W14       29.69R WCI  24
CLARION *      CLEAR     34  30  86 W15       29.69R WCI  24
ESTHERVILLE    CLEAR     34  26  72 W15       29.68R WCI  24
FORT DODGE *   CLEAR     37  25  60 W9        29.72S WCI  31
MASON CITY       N/A     35  27  72 W17       29.65R WCI  25
FOREST CITY *  CLEAR     34  28  80 W15G23    29.65R WCI  24
IOWA FALLS *     N/A     36  28  75 W14       29.69S WCI  27
$$

IAZ007>011-017>019-026>030-037>042-050>054-066-211000-
   NORTHEAST IOWA

CITY           SKY/WX    TMP DP  RH WIND       PRES   REMARKS
CEDAR RAPIDS   CLEAR     36  31  82 W13       29.67R WCI  27
CHARLES CITY * CLOUDY    37  32  81 W17       29.62S WCI  28
CLINTON *      CLEAR     36  28  75 W10       29.66S WCI  28
DECORAH *      CLOUDY    37  30  75 W8G23     29.56S WCI  31
DUBUQUE        CLOUDY    37  29  72 W16       29.60S WCI  28
MONTICELLO *   CLEAR     39  30  70 W16G22    29.63S WCI  30
OELWEIN *      CLOUDY    37  30  75 W15G21    29.63R WCI  28
WATERLOO       CLEAR     38  28  67 W16G23    29.65S WCI  29
$$

IAZ064-065-067-068-078-211000-
   EAST CENTRAL IOWA

CITY           SKY/WX    TMP DP  RH WIND       PRES   REMARKS
DAVENPORT      CLEAR     38  30  73 W15       29.67R WCI  29
IOWA CITY      CLEAR     38  31  76 W10       29.70R WCI  31
MT. PLEASANT * CLEAR     36  25  64 W6        29.73R WCI  31
MUSCATINE *    CLEAR     37  32  81 W10       29.70S WCI  30
QUAD CITIES    CLEAR     39  30  70 SW10      29.67S WCI  32
$$

IAZ062-063-075>077-085>089-095>099-211000-
   SOUTHEAST IOWA

CITY           SKY/WX    TMP DP  RH WIND       PRES   REMARKS
BURLINGTON     CLEAR     39  26  59 W7        29.72R WCI  34
FAIRFIELD *    CLEAR     36  25  64 W8        29.73R WCI  29
FORT MADISON * CLEAR     39  27  60 W6        29.73R WCI  35
KEOKUK *       CLEAR     41  27  56 SW12      29.73S
OSKALOOSA *      N/A     32  27  80 W10       29.73S WCI  24
CENTERVILLE *  CLEAR     39  27  60 W12       29.77R WCI  32
OTTUMWA        CLEAR     35  23  61 W8        29.72S WCI  29
WASHINGTON *   CLEAR     34  28  80 W7        29.71S WCI  28
$$

ABBREVIATIONS USED IN REMARKS
   TC - TEMPERATURES IN CELSIUS
  WCI - WIND CHILL INDEX
   HX - HEAT INDEX
  VSB - VISIBILITY
$$




USA.gov is the U.S. government's official web portal to all federal, state and local government web resources and services.